Tracking 21076 objects as of 10-Aug-2020
HD Live streaming from Space Station
objects crossing your sky now
Track the most recent launched group of Starlink satellites

SL-8 R/B

Track SL-8 R/B now!
10-day predictions


NORAD ID: 12088
Int'l Code: 1980-097B
Perigee: 944.6 km
Apogee: 1,018.7 km
Inclination: 82.9 °
Period: 104.6 minutes
Semi major axis: 7352 km
RCS: 4.7296 m2 (large)
Launch date: December 5, 1980
Source: Commonwealth of Independent States (former USSR) (CIS)
Launch site: PLESETSK MISSILE AND SPACE COMPLEX (PKMTR)

Note: This is a ROCKET BODY
aabbcc
Your satellite tracking list
Your tracking list is empty




NASA's NSSDC Master Catalog

Two Line Element Set (TLE):
1 12088U 80097B   20222.50303822 -.00000050 +00000-0 -66125-4 0  9995
2 12088 082.9413 208.1221 0050383 090.1420 270.5510 13.77004917993166
Source of the keplerian elements: AFSPC